Location: Baia Mare
(47.6567°N, 23.5850°E)
Time: 16:39:22
(UTC+03:00)

ISS - Pass Details

Date: 11 July 2018
Orbit: 402 x 408 km, 51.6° (Epoch: 21 July)

Event Time Altitude Azimuth Distance (km) Brightness Sun altitude
Exits shadow 04:38:59 - 271° (W) 2,016 -0.7 -8.5°
Reaches altitude 10° 04:40:21 10° 277° (W) 1,470 -1.3 -8.3°
Maximum altitude 04:43:32 44° 351° (N) 581 -2.7 -8.0°
Drops below altitude 10° 04:46:43 10° 65° (ENE) 1,475 0.4 -7.6°
Sets 04:48:52 0° 72° (ENE) 2,337 1.3 -7.3°
